This is the latest recevied weather packets stored in our database for station/object DK4MDA-13. If no packets are shown the sender has not sent any weather packets the latest 1 day(s).
| Time | Temp. | Humidity | Pressure | Rain* | Wind** | Luminosity | Snow |
|---|---|---|---|---|---|---|---|
| 1777989430 | 16.67° C | 82% | 1008.6 hPa | 0 mm | 3.58 m/s, 10° | - | - |
| 1777989130 | 16.67° C | 82% | 1008.5 hPa | 0 mm | 3.58 m/s, 26° | - | - |
| 1777988830 | 16.67° C | 81% | 1008.6 hPa | 0 mm | 3.13 m/s, 21° | - | - |
| 1777988530 | 16.67° C | 82% | 1008.6 hPa | 0 mm | 3.13 m/s, 26° | - | - |
| 1777988230 | 17.22° C | 82% | 1008.7 hPa | 0 mm | 3.58 m/s, 26° | - | - |
| 1777987930 | 17.22° C | 81% | 1008.5 hPa | 0 mm | 3.58 m/s, 343° | - | - |
| 1777987630 | 16.67° C | 81% | 1008.5 hPa | 0 mm | 3.58 m/s, 8° | - | - |
| 1777987330 | 17.22° C | 81% | 1008.6 hPa | 0 mm | 3.58 m/s, 344° | - | - |
| 1777987030 | 17.22° C | 82% | 1008.6 hPa | 0 mm | 3.58 m/s, 318° | - | - |
| 1777986730 | 17.22° C | 80% | 1008.7 hPa | 0 mm | 3.13 m/s, 26° | - | - |
| 1777986430 | 17.22° C | 81% | 1008.7 hPa | 0 mm | 3.13 m/s, 351° | - | - |
| 1777986130 | 17.78° C | 80% | 1008.7 hPa | 0 mm | 3.58 m/s, 333° | - | - |
| 1777985830 | 17.78° C | 78% | 1008.7 hPa | 0 mm | 3.13 m/s, 359° | - | - |
| 1777985530 | 18.33° C | 75% | 1008.7 hPa | 0 mm | 1.79 m/s, 26° | - | - |
| 1777985230 | 18.33° C | 73% | 1008.7 hPa | 0 mm | 1.34 m/s, 26° | - | - |
| 1777984930 | 18.33° C | 74% | 1008.8 hPa | 0 mm | 0.89 m/s, 340° | - | - |
| 1777984630 | 18.89° C | 76% | 1008.8 hPa | 0 mm | 0.89 m/s, 13° | - | - |
| 1777984330 | 18.89° C | 76% | 1008.6 hPa | 0 mm | 0.89 m/s, 13° | - | - |
| 1777984030 | 18.89° C | 74% | 1008.7 hPa | 0 mm | 0.45 m/s, 56° | - | - |
| 1777983729 | 18.89° C | 75% | 1008.8 hPa | 0 mm | 0 m/s | - | - |
| 1777983429 | 18.89° C | 75% | 1008.9 hPa | 0 mm | 0 m/s | - | - |
| 1777983129 | 18.89° C | 74% | 1008.9 hPa | 0 mm | 0 m/s | - | - |
| 1777982829 | 18.89° C | 72% | 1008.9 hPa | 0 mm | 0.45 m/s, 280° | - | - |
| 1777982530 | 19.44° C | 72% | 1009 hPa | 0 mm | 0.89 m/s, 320° | - | - |
| 1777982229 | 19.44° C | 76% | 1009.1 hPa | 0 mm | 0.45 m/s, 0° | - | - |
* Rain latest hour (hover to see other rain measurements)
** Current wind speed in m/s (hover to see current wind gust speed)